Stations météo

réclame
Mon MeteoGroup
Hastveda, Suède (2629): Température de l'air & dewpoint: 13.06.2018 20:00:00 - 19.06.2018 20:00:00 (CEST)Hastveda, Suède (2629): Vitesse du vent & gusts: 13.06.2018 20:00:00 - 19.06.2018 20:00:00 (CEST)Hastveda, Suède (2629): Direction du vent: 13.06.2018 20:00:00 - 19.06.2018 20:00:00 (CEST)Hastveda, Suède (2629): reduced air pressure: 13.06.2018 20:00:00 - 19.06.2018 20:00:00 (CEST)Hastveda, Suède (2629): visibility: 13.06.2018 20:00:00 - 19.06.2018 20:00:00 (CEST)Hastveda, Suède (2629): Quantités de précipitations: 13.06.2018 20:00:00 - 19.06.2018 20:00:00 (CEST)
Date & Time tt [°C] td [°C] ff [km/h] ff [knt] fx [km/h] fx [knt] dd ppp [hPa] vv [km] rr [mm]
19.06.2018 20:00:00 - - - - - - - - - -
19.06.2018 19:00:00 17,9 8,2 18 10 36 19 W 1016,6 35 0,0
19.06.2018 18:00:00 18,5 7,0 14 8 36 19 W 1016,2 40 0,0
19.06.2018 17:00:00 19,3 8,0 14 8 40 21 WNW 1015,8 35 0,0
19.06.2018 16:00:00 18,4 10,0 22 12 43 23 W 1015,3 45 0,0
19.06.2018 15:00:00 20,4 10,2 18 10 43 23 W 1014,8 35 0,0
19.06.2018 14:00:00 20,3 9,5 22 12 47 25 WSW 1014,4 35 0,0
19.06.2018 13:00:00 19,2 10,2 22 12 50 27 W 1014,3 40 0,0
19.06.2018 12:00:00 18,0 11,1 25 14 47 25 W 1014,1 35 0,0
19.06.2018 11:00:00 17,4 11,2 18 10 40 21 W 1013,9 30 0,0
19.06.2018 10:00:00 15,4 11,2 18 10 36 19 WSW 1013,5 40 0,0
19.06.2018 09:00:00 15,2 10,6 18 10 36 19 WSW 1013,4 45 0,0
19.06.2018 08:00:00 14,9 10,9 18 10 36 19 WSW 1013,2 45 0,0
19.06.2018 07:00:00 14,9 11,7 14 8 32 18 W 1013,0 35 0,0
19.06.2018 06:00:00 15,0 12,7 14 8 25 14 WSW 1012,9 30 0,0
19.06.2018 05:00:00 14,9 12,9 11 6 25 14 WSW 1012,7 26 0,0
19.06.2018 04:00:00 14,9 13,1 11 6 22 12 SW 1013,1 22 0,0
19.06.2018 03:00:00 15,2 13,2 11 6 25 14 SW 1013,3 30 0,0
19.06.2018 02:00:00 15,2 13,9 11 6 25 14 SW 1013,5 18 0,0
19.06.2018 01:00:00 - - - - - - - - - -
19.06.2018 00:00:00 16,1 13,9 14 8 25 14 SW 1014,3 35 0,0
18.06.2018 23:00:00 16,3 13,2 11 6 22 12 SSW 1014,4 30 0,0
18.06.2018 22:00:00 16,8 12,7 11 6 29 16 SW 1014,6 30 0,0
18.06.2018 21:00:00 17,3 12,4 11 6 22 12 SSW 1014,6 40 0,0
18.06.2018 20:00:00 17,4 11,7 7 4 25 14 SW 1014,8 45 0,0
18.06.2018 19:00:00 17,7 11,0 14 8 32 18 SW 1015,3 45 0,0
18.06.2018 18:00:00 18,4 11,5 11 6 25 14 SW 1015,5 45 0,0
18.06.2018 17:00:00 17,8 11,1 14 8 25 14 SW 1015,9 45 0,0
18.06.2018 16:00:00 18,2 11,3 14 8 29 16 SW 1016,2 45 0,0
18.06.2018 15:00:00 18,5 10,3 14 8 29 16 SW 1016,2 40 0,0
18.06.2018 14:00:00 18,7 9,5 11 6 29 16 SW 1016,4 45 0,0
18.06.2018 13:00:00 18,4 9,2 11 6 25 14 WSW 1016,4 45 0,0
18.06.2018 12:00:00 18,5 9,0 11 6 25 14 SW 1016,4 40 0,0
18.06.2018 11:00:00 17,8 9,7 11 6 25 14 WSW 1016,4 45 0,0
18.06.2018 10:00:00 16,3 9,7 14 8 25 14 WSW 1016,6 35 0,0
18.06.2018 09:00:00 15,7 10,2 14 8 22 12 SW 1016,5 40 0,0
18.06.2018 08:00:00 14,1 10,9 11 6 22 12 SW 1016,4 40 0,0
18.06.2018 07:00:00 12,9 9,9 7 4 18 10 WSW 1016,6 45 0,0
18.06.2018 06:00:00 11,1 9,7 7 4 11 6 SW 1016,5 40 0,0
18.06.2018 05:00:00 10,7 9,1 7 4 11 6 SSW 1016,2 40 0,0
18.06.2018 04:00:00 11,1 8,7 7 4 11 6 SSW 1015,9 45 0,0
18.06.2018 03:00:00 11,9 8,2 7 4 14 8 SW 1016,0 50 0,0
18.06.2018 02:00:00 11,7 7,6 7 4 14 8 SSW 1015,8 50 0,0
18.06.2018 01:00:00 12,5 7,6 7 4 18 10 SW 1015,5 50 0,0
18.06.2018 00:00:00 13,5 7,9 11 6 18 10 WSW 1015,2 50 0,0
17.06.2018 23:00:00 13,9 8,5 7 4 14 8 WSW 1014,8 50 0,0
17.06.2018 22:00:00 15,0 8,7 7 4 22 12 WSW 1014,8 45 0,0
17.06.2018 21:00:00 16,3 8,8 7 4 25 14 W 1014,2 45 0,0
17.06.2018 20:00:00 17,5 8,6 14 8 36 19 W 1013,5 45 0,0
17.06.2018 19:00:00 18,2 8,7 14 8 29 16 W 1013,3 45 0,0
17.06.2018 18:00:00 17,5 8,1 14 8 40 21 WSW 1013,2 45 0,0
17.06.2018 17:00:00 20,8 10,9 18 10 36 19 SW 1012,2 45 0,0
17.06.2018 16:00:00 20,8 13,0 18 10 40 21 SW 1011,6 35 0,0
17.06.2018 15:00:00 20,1 12,6 18 10 36 19 WSW 1011,6 40 0,0
17.06.2018 14:00:00 19,7 15,6 14 8 32 18 SW 1011,4 40 0,0
17.06.2018 13:00:00 18,0 15,8 11 6 25 14 SW 1011,3 30 0,0
17.06.2018 12:00:00 17,5 17,3 11 6 18 10 S 1011,6 9 0,3
17.06.2018 11:00:00 16,1 15,9 11 6 18 10 E 1012,0 1,4 3,0
17.06.2018 10:00:00 16,5 16,2 4 2 11 6 SSE 1013,0 10 0,0
17.06.2018 09:00:00 15,7 15,7 4 2 11 6 E 1012,6 7 0,0
17.06.2018 08:00:00 14,9 14,9 4 2 11 6 ESE 1012,8 5 0,0
17.06.2018 07:00:00 13,9 13,9 4 2 14 8 SSE 1013,0 5 0,0
17.06.2018 06:00:00 13,0 13,0 7 4 18 10 ESE 1012,9 8 0,0
17.06.2018 05:00:00 12,3 12,3 11 6 14 8 E 1013,6 7 0,0
17.06.2018 04:00:00 12,1 12,1 7 4 18 10 E 1014,1 6 0,0
17.06.2018 03:00:00 11,8 11,6 7 4 22 12 ESE 1014,7 6 0,3
17.06.2018 02:00:00 11,3 11,0 11 6 25 14 ESE 1015,5 2,8 6,0
17.06.2018 01:00:00 13,4 12,8 4 2 11 6 SSW 1015,9 7 2,0
17.06.2018 00:00:00 15,2 11,4 7 4 14 8 S 1015,6 45 0,0
16.06.2018 23:00:00 15,4 11,0 7 4 14 8 ESE 1015,6 45 0,0
16.06.2018 22:00:00 15,6 9,7 4 2 11 6 ESE 1015,9 45 0,0
16.06.2018 21:00:00 16,5 9,0 7 4 14 8 SE 1016,0 45 0,0
16.06.2018 20:00:00 17,7 8,5 7 4 14 8 SE 1015,9 45 0,0
16.06.2018 19:00:00 18,6 9,1 7 4 18 10 SE 1015,9 45 0,0
16.06.2018 18:00:00 19,2 9,4 7 4 22 12 SE 1016,4 40 0,0
16.06.2018 17:00:00 20,8 10,0 7 4 18 10 SE 1016,6 45 0,0
16.06.2018 16:00:00 20,9 9,8 7 4 22 12 SE 1016,9 40 0,0
16.06.2018 15:00:00 21,0 10,2 7 4 22 12 SSE 1016,9 40 0,0
16.06.2018 14:00:00 21,1 10,6 11 6 22 12 S 1017,6 45 0,0
16.06.2018 13:00:00 19,9 10,0 7 4 18 10 S 1018,0 45 0,0
16.06.2018 12:00:00 21,4 9,9 7 4 18 10 S 1017,9 40 0,0
16.06.2018 11:00:00 19,0 7,7 4 2 11 6 E 1018,1 40 0,0
16.06.2018 10:00:00 18,5 7,9 4 2 14 8 WSW 1018,1 45 0,0
16.06.2018 09:00:00 16,9 9,1 4 2 11 6 S 1018,2 45 0,0
16.06.2018 08:00:00 14,2 10,0 4 2 7 4 SSE 1018,4 45 0,0
16.06.2018 07:00:00 11,1 9,8 4 2 4 2 SSE 1018,5 45 0,0
16.06.2018 06:00:00 9,9 8,7 4 2 4 2 E 1018,4 40 0,0
16.06.2018 05:00:00 9,7 8,0 0 0 4 2 N 1018,4 45 0,0
16.06.2018 04:00:00 9,6 8,0 4 2 7 4 W 1018,4 40 0,0
16.06.2018 03:00:00 10,4 8,8 4 2 7 4 W 1018,2 45 0,0
16.06.2018 02:00:00 9,8 7,6 7 4 7 4 WSW 1018,0 40 0,0
16.06.2018 01:00:00 10,9 7,0 7 4 7 4 NW 1017,8 45 0,0
16.06.2018 00:00:00 11,1 6,8 7 4 11 6 NW 1017,7 45 0,0
15.06.2018 23:00:00 11,9 7,0 7 4 11 6 WNW 1017,6 45 0,0
15.06.2018 22:00:00 13,2 7,0 7 4 11 6 WNW 1017,5 45 0,0
15.06.2018 21:00:00 15,8 6,0 7 4 18 10 WNW 1017,1 45 0,0
15.06.2018 20:00:00 18,0 4,5 11 6 22 12 WNW 1016,6 50 0,0
15.06.2018 19:00:00 19,9 6,9 11 6 22 12 WNW 1016,3 45 0,0
15.06.2018 18:00:00 20,9 7,2 11 6 25 14 W 1016,2 40 0,0
15.06.2018 17:00:00 21,5 5,4 14 8 29 16 W 1016,0 40 0,0
15.06.2018 16:00:00 21,6 6,7 11 6 29 16 W 1015,7 35 0,0
15.06.2018 15:00:00 21,1 7,3 11 6 25 14 W 1015,4 40 0,0
15.06.2018 14:00:00 20,9 7,9 11 6 29 16 WSW 1015,4 35 0,0
15.06.2018 13:00:00 20,0 8,3 11 6 25 14 W 1015,2 40 0,0
15.06.2018 12:00:00 20,0 9,6 14 8 25 14 WSW 1014,9 30 0,0
15.06.2018 11:00:00 17,3 9,7 11 6 22 12 W 1015,0 40 0,0
15.06.2018 10:00:00 16,8 11,7 7 4 22 12 WSW 1014,6 30 0,0
15.06.2018 09:00:00 16,0 11,4 7 4 18 10 WNW 1014,2 30 0,0
15.06.2018 08:00:00 14,6 12,3 7 4 22 12 WSW 1014,2 21 0,0
15.06.2018 07:00:00 14,3 12,9 7 4 22 12 W 1013,5 20 0,0
15.06.2018 06:00:00 13,4 13,1 7 4 11 6 WSW 1013,1 9 0,0
15.06.2018 05:00:00 13,5 12,9 7 4 14 8 SW 1012,7 8 0,0
15.06.2018 04:00:00 13,9 13,3 7 4 18 10 SW 1012,3 10 0,0
15.06.2018 03:00:00 13,9 13,1 11 6 25 14 SW 1012,0 11 0,1
15.06.2018 02:00:00 15,0 12,0 11 6 22 12 WSW 1011,6 30 0,0
15.06.2018 01:00:00 15,3 11,8 11 6 22 12 SW 1011,6 40 0,0
15.06.2018 00:00:00 15,4 11,8 11 6 22 12 SW 1011,7 45 0,0
14.06.2018 23:00:00 16,0 10,5 11 6 18 10 S 1011,5 45 0,0
14.06.2018 22:00:00 16,8 10,9 11 6 18 10 S 1011,0 40 0,0
14.06.2018 21:00:00 17,4 11,7 7 4 22 12 SSW 1010,9 45 0,0
14.06.2018 20:00:00 18,5 11,3 11 6 22 12 SSW 1010,6 45 0,0
14.06.2018 19:00:00 18,6 11,7 14 8 25 14 S 1010,5 45 0,0
14.06.2018 18:00:00 18,7 11,8 14 8 29 16 SSW 1010,7 45 0,0
14.06.2018 17:00:00 20,6 11,5 18 10 25 14 S 1010,9 30 0,0
14.06.2018 16:00:00 19,5 12,0 11 6 25 14 SSW 1011,0 45 0,0
14.06.2018 15:00:00 18,7 11,3 11 6 22 12 SSW 1011,7 45 0,0
14.06.2018 14:00:00 18,0 10,4 11 6 22 12 SSW 1012,0 45 0,0
14.06.2018 13:00:00 17,2 9,1 7 4 22 12 SW 1012,3 45 0,0
14.06.2018 12:00:00 16,2 8,7 11 6 22 12 SW 1012,7 45 0,0
14.06.2018 11:00:00 14,5 10,3 7 4 18 10 SW 1012,8 40 0,0
14.06.2018 10:00:00 13,6 10,6 11 6 14 8 SW 1012,9 45 0,0
14.06.2018 09:00:00 13,3 10,3 7 4 18 10 SW 1012,7 45 0,0
14.06.2018 08:00:00 12,2 10,8 7 4 14 8 WSW 1012,6 45 0,0
14.06.2018 07:00:00 10,8 10,5 7 4 14 8 WSW 1012,5 26 0,0
14.06.2018 06:00:00 9,7 9,6 4 2 11 6 SW 1012,4 21 0,0
14.06.2018 05:00:00 8,8 8,7 4 2 11 6 SW 1012,2 11 0,0
14.06.2018 04:00:00 9,1 8,8 7 4 14 8 W 1012,2 22 0,0
14.06.2018 03:00:00 9,7 9,4 7 4 14 8 W 1012,0 28 0,0
14.06.2018 02:00:00 10,2 9,9 11 6 14 8 W 1011,5 24 0,0
14.06.2018 01:00:00 10,8 10,3 7 4 14 8 W 1011,2 27 0,0
14.06.2018 00:00:00 11,5 11,0 7 4 18 10 W 1011,3 26 0,0
13.06.2018 23:00:00 12,5 12,2 11 6 22 12 WNW 1010,9 22 0,0
13.06.2018 22:00:00 14,3 14,1 7 4 14 8 WNW 1010,1 8 0,0
13.06.2018 21:00:00 14,8 14,5 4 2 7 4 SW 1009,3 12 0,0
13.06.2018 20:00:00 15,2 14,9 4 2 4 2 W 1009,0 30 0,0

tt = Température de l'air
td = dewpoint
ff = Vitesse du vent
fx = gusts
dd = Direction du vent
ppp = reduced air pressure
vv = visibility
rr = Quantités de précipitations

stations d'obs. à proximité